User: anonymous   Login
Location: Albany
(35.0000°S, 118.0000°E)
Time: 23:35:37
(UTC-04:00)
Language:

Radarsat Rocket - Orbit

View from above orbital plane
View from above orbital plane
View from above satellite
View from above satellite

Ground track
Ground track

The orbit data is extracted from the following two-line orbital elements,

1 23711U 95059B   15144.92932484 -.00000035  00000-0  22678-4 0  9996
2 23711 100.4856 130.3996 0367602 225.9543 188.4469 13.12668630936830
Epoch (UTC): 24 May 2015 22:18:13
Eccentricity: 0.0367602
inclination: 100.4856°
perigee height: 934 km
apogee height: 1492 km
right ascension of ascending node: 130.3996°
argument of perigee: 225.9543°
revolutions per day: 13.12668630
mean anomaly at epoch: 188.4469°
orbit number at epoch: 93683

The dashed part of the orbit path shows where the satellite is in the earth's shadow,  

DLR